NOAA NWS Hourly Roundups by Site

Regional Weather Roundup for Omaha, NE

To Select Another Site Choose from List

Select Site:  

000
ASUS43 KOAX 160210
RWRNE

WEATHER ROUNDUP FOR NEBRASKA
NATIONAL WEATHER SERVICE OMAHA NE
900 PM CDT SUN JUL 15 2018

NOTES: SATELLITE DATA IS BEING USED TO AUGMENT CLOUD COVER ABOVE
       12000 FEET.
       "FAIR" INDICATES FEW OR NO CLOUDS BELOW 12,000 FEET WITH NO
       SIGNIFICANT WEATHER AND/OR OBSTRUCTIONS TO VISIBILITY.


NEZ001>004-019>022-054>056-160300-
NEBRASKA PANHANDLE

CITY           SKY/WX    TMP DP  RH WIND       PRES   REMARKS
SCOTTSBLUFF    CLEAR     71  65  81 E6        30.18F
ALLIANCE       CLEAR     69  61  75 SE6       30.18S
CHADRON        CLEAR     72  62  71 SE6       30.14S
GORDON         FAIR      71  60  67 CALM      30.17S
KIMBALL        PTCLDY    70  57  64 S3        30.26R
SIDNEY         CLOUDY    73  58  59 E7        30.22S
$$

NEZ057>060-069>072-079>082-160300-
SOUTHWEST NEBRASKA

CITY           SKY/WX    TMP DP  RH WIND       PRES   REMARKS
NORTH PLATTE   MOCLDY    74  68  81 NE13      30.14R
IMPERIAL       MOCLDY    76  64  66 NE7       30.14R
LEXINGTON      PTCLDY    76  69  76 NE7       30.10R
MCCOOK         PTCLDY    80  67  64 MISG      30.09R
OGALLALA       MOCLDY    74  64  70 NE3       30.17R
$$

NEZ005>010-023>029-035>040-094-160300-
NORTH CENTRAL NEBRASKA

CITY           SKY/WX    TMP DP  RH WIND       PRES   REMARKS
VALENTINE      PTCLDY    72  62  71 N5        30.14S
AINSWORTH      PTCLDY    67  60  77 N5        30.15R
BROKEN BOW     MOCLDY    73  66  78 N8        30.12R
O`NEILL        CLOUDY    70  60  70 N8        30.12R
ORD            CLOUDY    73  65  75 N7        30.09R
THEDFORD       PTCLDY    71  64  78 CALM      30.16R
$$

NEZ041-046>049-061>064-073>077-083>087-160300-
SOUTH CENTRAL NEBRASKA

CITY           SKY/WX    TMP DP  RH WIND       PRES   REMARKS
GRAND ISLAND   CLOUDY    77  71  82 N5        30.04S
AURORA         PTCLDY    78  74  88 N6        30.03S
HASTINGS       CLEAR     81  71  71 NE3       30.06R
HEBRON         CLOUDY    82  73  73 CALM      30.01R
HOLDREGE       PTCLDY    77  73  86 NE3       30.07S
KEARNEY        PTCLDY    78  71  79 N9        30.07R
YORK           CLEAR     77  72  83 NE6       30.03R
$$

NEZ011>018-030>034-042>045-160300-
NORTHEAST NEBRASKA

CITY           SKY/WX    TMP DP  RH WIND       PRES   REMARKS
NORFOLK        CLEAR     73  68  84 N7        30.06R
ALBION         CLOUDY    74  67  76 N7        30.08R
BLAIR          CLOUDY    82  70  66 CALM      30.00S
COLUMBUS       CLOUDY    76  72  87 MISG      30.04R
FREMONT        CLOUDY    85  67  53 CALM      30.01R
TEKAMAH        PTCLDY    84  72  67 CALM      29.98R
WAYNE          CLEAR     74  73  97 N5        30.04R
$$

NEZ050>053-065>068-078-088>093-160300-
SOUTHEAST NEBRASKA

CITY           SKY/WX    TMP DP  RH WIND       PRES   REMARKS
LINCOLN        PTCLDY    81  69  67 NE7       30.00R
OMAHA EPPLEY   CLOUDY    84  69  60 E3        29.98R
BEATRICE       CLOUDY    84  74  71 E3        30.00R HX  92
FALLS CITY     CLOUDY    81  70  69 NE3       29.97S
NEBRASKA CITY  PTCLDY    81  73  74 SE3       29.99S
PLATTSMOUTH    CLOUDY    81  70  70 CALM      30.00R
$$

NEZ044-045-051>053-067-160300-
OMAHA AREA

CITY           SKY/WX    TMP DP  RH WIND       PRES   REMARKS
OMAHA EPPLEY   CLOUDY    84  69  60 E3        29.98R
BLAIR          CLOUDY    82  70  66 CALM      30.00S
FREMONT        CLOUDY    85  67  53 CALM      30.01R
MILLARD        MOCLDY    83  70  63 CALM      29.99R
OFFUTT AFB     PTCLDY    80  69  69 E5        29.98S
PLATTSMOUTH    CLOUDY    81  70  70 CALM      30.00R
WAHOO          FAIR      80  68  66 CALM      30.00R
$$


 

View Past Reports for Omaha, NE.

Products Courtesy of NOAA-NWS
NWS Information Parsing Script by Ken True at Saratoga Weather - Script by SE Lincoln Weather.